Location: Middle Street
(51.7167°N, 0.0333°E)
Time: 00:16:19
(UTC+00:00)

USA 234 - Pass Details

Date: 20 January 2021
Orbit: 1100 x 1107 km, 123.0° (Epoch: 26 February)

Event Time Altitude Azimuth Distance (km) Brightness Sun altitude
Exits shadow 18:40:15 33° 86° (E) 1,769 3.8 -20.0°
Maximum altitude 18:43:21 66° 16° (NNE) 1,197 3.3 -20.5°
Drops below altitude 10° 18:49:49 10° 296° (WNW) 2,969 6.3 -21.5°
Sets 18:52:19 0° 294° (WNW) 3,929 7.2 -21.8°
